Location: Newark
(13.8625°N, 100.5144°E)
Time: 17:34:21
(UTC+00:00)

LightSail 2 - Pass Details

Date: 16 May 2021
Orbit: 685 x 700 km, 24.0° (Epoch: 11 June)

Event Time Altitude Azimuth Distance (km) Brightness Sun altitude
Rises 12:39:34 0° 226° (SW) 3,052 8.7 -14.7°
Reaches altitude 10° 12:42:13 10° 215° (SW) 2,138 7.7 -15.3°
Maximum altitude 12:46:38 30° 154° (SSE) 1,221 5.9 -16.3°
Enters shadow 12:47:45 28° 130° (SE) 1,301 5.9 -16.5°
